QXE523 KISP-KHFD

Flight info

Callsign QXE523
Flight time 0h 22m
Altitude 11000
Route MAD T303 HFD
Aircraft DH8D/M-SDE2E3FGRY/H

Departure

Time 2026-04-30 00:41
Airport Long Island MacArthur Airport (KISP)

Arrival

Time 2026-04-30 01:04
Airport Hartford Brainard Airport (KHFD)
Time Latitude Longitude Altitude Speed Heading
2026-04-30 00:12 40.79035 -73.09856 87 ft 0 kts 180°
2026-04-30 00:31 40.79046 -73.09857 86 ft 2 kts 180°
2026-04-30 00:31 40.79061 -73.09856 86 ft 2 kts 180°
2026-04-30 00:31 40.79076 -73.09856 86 ft 2 kts 180°
2026-04-30 00:31 40.79090 -73.09856 86 ft 2 kts 180°
2026-04-30 00:32 40.79098 -73.09856 86 ft 1 kts 173°
2026-04-30 00:32 40.79110 -73.09866 86 ft 1 kts 123°
2026-04-30 00:32 40.79113 -73.09879 86 ft 1 kts 89°
2026-04-30 00:32 40.79113 -73.09881 86 ft 0 kts 89°
2026-04-30 00:34 40.79113 -73.09877 86 ft 3 kts 89°
2026-04-30 00:34 40.79110 -73.09734 85 ft 25 kts 75°
2026-04-30 00:35 40.79140 -73.09532 84 ft 20 kts 47°
2026-04-30 00:35 40.79246 -73.09457 85 ft 16 kts 342°
2026-04-30 00:35 40.79337 -73.09471 87 ft 12 kts
2026-04-30 00:35 40.79413 -73.09470 88 ft 9 kts
2026-04-30 00:36 40.79469 -73.09470 89 ft 7 kts 360°
2026-04-30 00:36 40.79511 -73.09470 90 ft 5 kts 360°
2026-04-30 00:36 40.79518 -73.09470 90 ft 0 kts 360°
2026-04-30 00:36 40.79589 -73.09470 90 ft 14 kts
2026-04-30 00:37 40.79684 -73.09470 90 ft 12 kts 359°
2026-04-30 00:37 40.79760 -73.09469 92 ft 9 kts
2026-04-30 00:37 40.79817 -73.09469 93 ft 10 kts
2026-04-30 00:37 40.79930 -73.09470 98 ft 21 kts 360°
2026-04-30 00:38 40.80067 -73.09470 101 ft 10 kts
2026-04-30 00:38 40.80090 -73.09469 101 ft 0 kts
2026-04-30 00:40 40.80100 -73.09469 101 ft 5 kts
2026-04-30 00:40 40.80166 -73.09476 103 ft 12 kts 340°
2026-04-30 00:40 40.80133 -73.09577 101 ft 25 kts 225°
2026-04-30 00:40 40.79817 -73.09993 93 ft 106 kts 223°
2026-04-30 00:41 40.79168 -73.10854 172 ft 151 kts 225°
2026-04-30 00:41 40.78423 -73.11903 682 ft 161 kts 226°
2026-04-30 00:41 40.77680 -73.13016 1271 ft 170 kts 227°
2026-04-30 00:41 40.76903 -73.14210 1744 ft 181 kts 227°
2026-04-30 00:42 40.76263 -73.15641 2233 ft 188 kts 256°
2026-04-30 00:42 40.76434 -73.17323 2694 ft 194 kts 297°
2026-04-30 00:42 40.77368 -73.18494 3123 ft 198 kts 336°
2026-04-30 00:42 40.78667 -73.18964 3576 ft 201 kts 348°
2026-04-30 00:43 40.80041 -73.19368 4124 ft 202 kts 348°
2026-04-30 00:43 40.81398 -73.19750 4619 ft 206 kts 348°
2026-04-30 00:43 40.82848 -73.20142 4852 ft 223 kts 348°
2026-04-30 00:43 40.84421 -73.20561 4952 ft 245 kts 348°
2026-04-30 00:44 40.86132 -73.21107 4985 ft 259 kts 343°
2026-04-30 00:44 40.87889 -73.21338 4963 ft 257 kts 12°
2026-04-30 00:44 40.89386 -73.20253 4982 ft 249 kts 47°
2026-04-30 00:44 40.90528 -73.18511 4988 ft 248 kts 52°
2026-04-30 00:45 40.91663 -73.16815 4986 ft 249 kts 50°
2026-04-30 00:45 40.92864 -73.15124 4984 ft 250 kts 48°
2026-04-30 00:45 40.94074 -73.13504 4981 ft 250 kts 47°
2026-04-30 00:45 40.95309 -73.11906 4980 ft 249 kts 46°
2026-04-30 00:46 40.96560 -73.10335 4979 ft 249 kts 45°
2026-04-30 00:46 40.97813 -73.08789 4981 ft 249 kts 45°
2026-04-30 00:46 40.99098 -73.07228 4982 ft 250 kts 44°
2026-04-30 00:46 41.00382 -73.05685 4983 ft 251 kts 44°
2026-04-30 00:47 41.01679 -73.04138 4984 ft 252 kts 43°
2026-04-30 00:47 41.02968 -73.02610 4978 ft 250 kts 43°
2026-04-30 00:47 41.04265 -73.01080 4976 ft 250 kts 44°
2026-04-30 00:47 41.05560 -72.99552 4982 ft 250 kts 43°
2026-04-30 00:48 41.06856 -72.98026 4984 ft 250 kts 43°
2026-04-30 00:48 41.08160 -72.96492 4984 ft 252 kts 43°
2026-04-30 00:48 41.09477 -72.94944 4983 ft 252 kts 43°
2026-04-30 00:48 41.10799 -72.93391 4976 ft 253 kts 43°
2026-04-30 00:49 41.12106 -72.91858 4993 ft 252 kts 43°
2026-04-30 00:49 41.13417 -72.90320 4998 ft 251 kts 43°
2026-04-30 00:49 41.14711 -72.88802 4999 ft 251 kts 43°
2026-04-30 00:49 41.16022 -72.87264 4997 ft 251 kts 43°
2026-04-30 00:50 41.17314 -72.85747 4997 ft 251 kts 43°
2026-04-30 00:50 41.18621 -72.84212 4999 ft 250 kts 43°
2026-04-30 00:50 41.19933 -72.82671 5001 ft 251 kts 43°
2026-04-30 00:50 41.21230 -72.81148 4998 ft 250 kts 43°
2026-04-30 00:51 41.22514 -72.79639 4995 ft 249 kts 43°
2026-04-30 00:51 41.23803 -72.78123 4999 ft 249 kts 43°
2026-04-30 00:51 41.25097 -72.76599 4999 ft 248 kts 43°
2026-04-30 00:51 41.26380 -72.75088 4997 ft 248 kts 44°
2026-04-30 00:52 41.27674 -72.73563 4999 ft 248 kts 43°
2026-04-30 00:52 41.28955 -72.72054 5001 ft 248 kts 43°
2026-04-30 00:52 41.30228 -72.70553 4999 ft 247 kts 44°
2026-04-30 00:52 41.31567 -72.69159 4984 ft 248 kts 30°
2026-04-30 00:53 41.33182 -72.68318 5000 ft 249 kts 19°
2026-04-30 00:53 41.34822 -72.67612 4998 ft 249 kts 19°
2026-04-30 00:53 41.36456 -72.66910 4910 ft 246 kts 19°
2026-04-30 00:53 41.38009 -72.66251 4666 ft 229 kts 19°
2026-04-30 00:54 41.39465 -72.65630 4471 ft 212 kts 19°
2026-04-30 00:54 41.40796 -72.65059 4284 ft 194 kts 20°
2026-04-30 00:54 41.42001 -72.64532 4135 ft 183 kts 20°
2026-04-30 00:54 41.43186 -72.64009 3965 ft 177 kts 21°
2026-04-30 00:55 41.44334 -72.63503 3796 ft 166 kts 21°
2026-04-30 00:55 41.45388 -72.63039 3724 ft 156 kts 21°
2026-04-30 00:55 41.47468 -72.62096 3404 ft 163 kts 22°
2026-04-30 00:56 41.48530 -72.61623 3242 ft 159 kts 22°
2026-04-30 00:56 41.49554 -72.61170 3091 ft 155 kts 22°
2026-04-30 00:56 41.50510 -72.60747 2953 ft 149 kts 22°
2026-04-30 00:56 41.51396 -72.60355 2825 ft 143 kts 22°
2026-04-30 00:57 41.52371 -72.59918 2705 ft 144 kts 22°
2026-04-30 00:57 41.53321 -72.59487 2581 ft 147 kts 22°
2026-04-30 00:57 41.54327 -72.59267 2509 ft 148 kts 358°
2026-04-30 00:57 41.55317 -72.59514 2466 ft 145 kts 349°
2026-04-30 00:58 41.56285 -72.59815 2424 ft 142 kts 349°
2026-04-30 00:58 41.57252 -72.60111 2396 ft 143 kts 349°
2026-04-30 00:58 41.58237 -72.60407 2385 ft 149 kts 349°
2026-04-30 00:58 41.59226 -72.60721 2333 ft 146 kts 348°
2026-04-30 00:59 41.60209 -72.61031 2306 ft 145 kts 349°
2026-04-30 00:59 41.61223 -72.61335 2290 ft 154 kts 349°
2026-04-30 00:59 41.62265 -72.61654 2258 ft 159 kts 349°
2026-04-30 00:59 41.63343 -72.61991 2210 ft 157 kts 348°
2026-04-30 01:00 41.64388 -72.62321 2130 ft 156 kts 348°
2026-04-30 01:00 41.65477 -72.62659 1864 ft 166 kts 348°
2026-04-30 01:00 41.66538 -72.63001 1585 ft 153 kts 347°
2026-04-30 01:00 41.67493 -72.63312 1308 ft 139 kts 347°
2026-04-30 01:01 41.68431 -72.63597 1205 ft 143 kts 349°
2026-04-30 01:01 41.69443 -72.63744 1089 ft 145 kts 358°
2026-04-30 01:01 41.70436 -72.63799 974 ft 142 kts
2026-04-30 01:01 41.71389 -72.63799 913 ft 136 kts
2026-04-30 01:02 41.72327 -72.63733 1026 ft 134 kts
2026-04-30 01:02 41.73250 -72.63578 1026 ft 134 kts 12°
2026-04-30 01:02 41.74144 -72.63351 1027 ft 134 kts 14°
2026-04-30 01:02 41.75059 -72.63194 908 ft 137 kts 354°
2026-04-30 01:03 41.75789 -72.63878 700 ft 134 kts 285°
2026-04-30 01:03 41.75505 -72.64913 572 ft 125 kts 205°
2026-04-30 01:03 41.74680 -72.64776 229 ft 126 kts 167°
2026-04-30 01:03 41.73907 -72.64826 38 ft 82 kts 187°
2026-04-30 01:04 41.73524 -72.64904 40 ft 33 kts 189°
2026-04-30 01:04 41.73382 -72.64952 40 ft 7 kts 260°
2026-04-30 01:04 41.73409 -72.65017 40 ft 8 kts 313°
2026-04-30 01:04 41.73456 -72.65034 40 ft 7 kts
2026-04-30 01:05 41.73512 -72.65023 40 ft 8 kts
2026-04-30 01:05 41.73577 -72.65009 40 ft 10 kts
2026-04-30 01:05 41.73647 -72.64992 40 ft 11 kts 11°
2026-04-30 01:05 41.73719 -72.64978 40 ft 11 kts
2026-04-30 01:06 41.73798 -72.64963 40 ft 12 kts
2026-04-30 01:06 41.73886 -72.64944 40 ft 12 kts
2026-04-30 01:06 41.73998 -72.64918 38 ft 25 kts
2026-04-30 01:06 41.74220 -72.64871 36 ft 35 kts
2026-04-30 01:07 41.74334 -72.64886 34 ft 12 kts 250°
2026-04-30 01:07 41.74311 -72.64995 36 ft 11 kts 259°
2026-04-30 01:07 41.74300 -72.65031 37 ft 0 kts 79°